Temperature
18 18 18 18 18 18 18 18 18 18 18 18 18 18 18 18 18 18 18 18 18 17 17 17 17 17 17 17 17 17 17 17 17 17 17 17 17 17 16 16 16 16 16
18 18 18 18 18 18 18 18 18 18 18 18 18 18 18 18 18 18 18 18 18 17 17 17 17 17 17 17 17 17 17 17 17 17 17 17 16 16 16 16 16 16 16
18 18 18 18 18 18 18 18 18 18 18 18 18 18 18 18 18 18 18 18 18 17 17 17 17 17 17 17 17 17 17 17 17 17 17 17 16 16 16 16 16 16 16
18 18 18 18 18 18 18 18 18 18 18 18 18 18 18 18 18 18 18 18 18 17 17 17 17 17 17 17 17 17 17 17 17 17 17 16 16 16 16 16 16 16 16
18 18 18 18 18 18 18 18 18 18 17 17 18 18 18 17 17 17 17 17 17 17 17 17 17 17 17 17 17 17 17 17 17 17 17 17 16 16 16 16 16 16 16
18 18 18 18 18 18 18 18 18 18 17 17 17 17 17 17 17 17 17 17 17 17 17 17 17 17 17 17 17 17 17 17 17 17 17 17 16 16 16 16 16 16 16
18 18 18 18 18 18 18 18 18 18 17 17 17 17 17 17 17 17 17 17 17 17 17 17 17 17 17 17 17 17 17 17 17 17 17 17 16 16 16 16 16 16 16
18 18 18 18 18 18 18 18 18 17 17 17 17 17 17 17 17 17 17 17 17 17 17 17 17 17 17 17 17 17 17 17 17 17 17 17 17 16 16 16 16 16 16
18 18 18 18 18 18 18 18 17 17 17 17 17 17 17 17 17 17 17 17 17 17 17 17 17 17 17 17 17 17 17 17 17 17 17 17 16 16 16 16 16 16 16
18 18 18 18 18 18 17 17 17 17 17 17 17 17 17 17 16 16 17 17 17 17 17 17 17 17 17 17 17 17 17 17 17 17 17 17 16 16 16 16 16 16 15
18 18 18 18 18 17 17 17 17 17 17 17 17 17 17 17 17 16 16 16 17 17 17 17 17 17 17 17 17 17 17 17 17 17 17 17 16 16 16 16 16 16 15
17 17 17 17 17 17 17 17 17 17 17 17 17 17 16 16 16 16 16 16 16 16 17 17 17 17 17 17 17 17 17 17 17 16 16 16 16 16 16 16 16 16 15
17 17 17 17 17 17 17 17 17 17 17 17 16 16 16 16 16 16 16 16 16 16 16 16 16 16 17 16 16 16 16 16 16 16 16 16 16 16 16 16 16 16 15
17 17 17 17 17 17 17 17 16 16 16 16 16 16 16 16 16 16 16 16 16 16 16 16 16 16 16 17 16 16 16 16 16 16 16 16 16 16 16 16 15 15 15
17 17 17 17 17 16 16 16 16 16 16 16 16 16 16 16 16 16 16 16 15 15 15 16 16 16 16 16 16 16 16 16 16 16 16 16 16 16 16 16 15 15 15
17 17 16 16 16 16 16 16 16 16 16 16 16 16 16 16 15 15 15 15 15 15 15 15 16 16 16 16 16 16 16 16 16 16 16 15 16 16 16 16 15 15 15
16 16 16 16 16 16 16 16 16 15 15 15 15 15 15 15 15 15 15 15 15 15 15 15 15 16 16 16 16 16 16 15 16 16 15 15 15 15 15 15 15 15 15
16 16 16 16 16 16 15 15 15 15 15 15 15 15 15 15 15 15 15 15 15 15 15 15 15 15 15 15 15 15 15 15 15 15 15 15 15 15 15 15 15 15 15
16 16 16 16 15 15 15 15 15 15 15 15 15 15 15 15 15 14 14 14 14 14 14 14 15 15 15 15 15 15 15 15 15 15 15 15 15 15 15 15 15 15 15
16 16 16 15 15 15 15 15 15 15 15 15 14 14 14 14 14 14 14 14 14 14 14 14 14 14 15 15 15 15 15 15 15 15 15 15 15 15 15 15 15 15 15
16 16 15 15 15 15 15 15 15 15 15 14 14 14 14 14 14 14 14 14 14 14 14 14 14 14 14 14 14 14 15 15 15 15 15 15 15 15 15 15 15 14 14
16 15 15 15 15 15 15 15 14 14 14 14 14 14 14 14 14 14 14 14 14 14 14 14 14 14 14 14 14 14 14 14 14 15 14 14 14 14 15 15 15 14 14
15 15 15 15 15 15 15 14 14 14 14 14 14 14 14 14 14 14 14 14 14 14 13 13 13 14 14 14 14 14 14 14 14 14 14 14 14 14 14 15 14 14 14
15 15 15 15 15 14 14 14 14 14 14 14 14 13 13 13 13 13 13 13 14 13 13 13 13 13 13 13 13 13 13 13 14 14 13 14 14 14 14 14 14 14 14
15 15 15 14 14 14 14 14 14 13 13 13 13 13 13 13 13 13 13 13 13 13 13 13 13 13 13 13 13 13 13 13 13 13 13 13 14 14 14 14 14 14 14
15 14 14 14 14 14 14 13 13 13 13 13 13 13 13 13 13 13 13 13 13 13 13 13 13 13 13 13 13 13 13 13 13 13 13 13 13 13 13 14 14 14 13
Wind_Speed
0 1 1 1 2 2 1 1 1 2 2 2 1 1 1 1 2 3 4 7 9 10 10 10 10 10 10 10 9 9 10 11 11 11 13 13 13 13 12 12 12 11 11
0 0 1 1 1 2 1 1 1 1 1 1 1 1 1 1 1 2 3 6 8 9 10 10 10 10 10 10 10 10 10 10 10 11 12 14 14 14 13 13 12 11 11
1 1 0 1 1 1 1 1 1 1 1 1 2 1 0 1 1 2 2 4 5 8 10 10 10 10 10 9 10 10 10 10 10 11 12 13 14 14 14 13 12 12 11
1 0 0 1 1 1 1 1 1 1 1 2 1 1 1 0 1 1 2 3 4 6 8 9 10 10 9 9 9 10 10 10 10 10 11 12 12 12 12 12 12 12 11
1 1 0 1 1 1 1 1 1 1 1 1 1 1 1 1 1 1 2 2 3 4 5 8 9 10 9 9 9 9 9 10 11 11 11 12 12 12 12 12 12 11 11
2 1 0 1 1 1 1 1 1 1 0 0 1 2 1 1 1 1 2 2 3 4 5 5 7 8 10 10 9 9 10 10 11 11 12 12 12 13 13 12 12 12 11
2 1 1 1 1 1 0 0 0 1 1 0 1 2 2 2 1 1 2 2 3 4 5 5 6 6 7 9 10 10 11 11 11 11 12 13 13 13 13 13 13 12 12
2 1 1 1 1 1 2 1 1 0 1 1 1 1 2 2 2 1 1 2 3 2 4 5 7 7 7 7 9 10 11 11 11 11 12 12 13 13 13 13 13 13 12
2 1 1 1 1 1 1 1 1 0 0 0 0 1 1 1 2 2 1 2 2 3 4 4 5 7 8 8 8 9 10 10 11 11 11 11 12 12 12 12 13 13 13
2 2 1 1 1 1 1 1 1 1 0 1 0 1 1 2 1 1 2 2 3 3 4 4 4 5 6 7 8 9 10 10 11 12 11 11 12 12 12 12 13 13 13
2 2 1 1 1 1 1 1 1 1 0 1 1 0 1 1 1 2 2 2 2 3 4 4 3 3 5 5 6 7 9 10 10 11 12 11 11 12 13 13 13 13 13
2 3 2 1 1 1 2 1 1 1 1 0 0 0 1 1 1 2 2 2 2 3 2 3 3 3 4 5 6 7 7 8 9 9 10 11 11 12 12 12 12 13 13
1 3 2 2 2 1 1 1 1 1 1 0 0 1 1 1 1 1 2 2 2 2 2 2 3 3 4 4 6 7 8 8 8 8 8 9 10 10 11 11 11 12 13
1 2 2 2 2 2 2 2 1 1 1 1 1 1 1 1 1 1 1 2 2 2 2 3 2 3 3 4 5 7 7 8 8 8 8 9 10 10 10 10 11 11 11
1 2 2 2 2 2 2 1 1 2 1 1 1 1 1 1 1 1 1 1 2 2 3 3 2 3 4 4 5 5 5 7 8 8 9 9 10 11 11 11 11 11 10
1 1 2 2 2 2 2 1 1 2 1 1 1 1 1 2 1 1 1 1 2 2 3 3 3 3 3 3 4 5 5 6 7 8 9 9 10 11 11 11 11 11 11
1 1 1 1 2 2 2 1 1 1 1 2 1 1 2 2 1 1 1 1 1 2 3 3 2 2 2 3 2 3 4 5 6 8 9 10 10 10 11 11 12 12 12
1 1 1 1 2 2 2 1 2 2 2 2 2 2 3 2 2 2 2 2 2 2 3 4 3 2 3 3 2 3 3 4 5 7 9 10 10 10 11 11 12 12 12
2 1 1 2 2 2 2 2 2 2 3 3 3 3 3 2 3 3 2 3 3 2 2 3 3 2 2 2 2 3 4 4 5 6 9 10 11 11 11 11 12 12 12
2 2 2 2 3 3 3 3 2 3 3 3 3 3 4 3 4 4 3 3 3 3 2 2 3 3 2 2 2 3 4 4 5 5 6 7 9 11 11 12 12 13 13
2 2 2 3 3 3 3 3 3 3 3 4 4 4 4 4 5 4 3 3 3 3 3 3 3 3 3 2 3 3 5 4 5 4 4 5 5 6 7 10 11 12 13
2 1 2 3 3 3 5 5 3 3 4 4 5 5 5 5 5 6 6 5 4 4 4 4 4 4 5 4 4 4 4 4 4 3 4 5 4 6 6 7 10 11 12
2 2 3 3 4 5 6 6 5 4 4 4 5 5 5 4 4 5 6 6 6 7 7 5 5 6 6 5 4 5 5 5 6 3 2 5 4 6 6 7 10 12 13
2 3 3 3 4 6 6 6 5 4 4 5 5 5 5 5 5 4 4 4 5 6 7 6 6 7 7 6 6 6 6 5 5 3 3 4 4 5 5 5 9 12 13
3 3 3 4 4 6 7 5 4 3 4 5 5 4 5 5 7 5 3 5 6 6 6 7 9 8 8 7 5 3 4 4 5 4 4 4 4 4 4 5 6 9 11
3 3 3 4 4 5 6 6 4 2 3 4 4 5 5 6 7 5 3 4 6 6 5 5 5 5 6 6 6 6 5 5 4 4 4 4 3 2 3 3 4 4 6
Wind_Direction
15 9 353 349 332 326 346 335 341 345 348 337 297 237 223 203 196 193 199 195 194 190 191 191 189 188 193 197 199 204 207 205 204 205 205 203 202 200 197 196 194 192 193
207 318 329 343 329 315 294 270 299 330 341 342 336 310 240 223 191 192 196 193 192 194 195 195 196 195 199 202 203 205 208 207 206 209 207 205 203 200 198 197 196 196 198
238 224 271 312 310 297 304 326 343 4 359 0 349 338 287 254 195 181 176 180 192 200 200 203 203 201 203 206 208 208 210 210 208 209 205 201 202 202 200 199 199 200 202
272 187 3 329 314 333 16 9 15 23 8 1 351 345 329 234 219 182 171 180 190 200 204 209 207 206 208 214 212 210 209 211 210 207 203 200 198 200 200 199 200 201 202
315 184 287 305 339 47 31 350 16 55 15 355 347 352 356 264 248 228 205 202 197 198 206 216 211 210 213 215 215 215 214 214 211 210 208 204 202 203 203 201 200 199 200
8 54 355 342 20 48 26 9 351 7 346 321 356 7 358 319 280 244 234 218 207 207 212 219 217 220 222 221 221 222 223 221 216 212 210 208 207 205 202 201 198 199 201
24 69 39 23 26 34 353 15 66 18 8 30 57 11 358 347 322 260 237 222 221 218 213 220 222 222 225 223 225 227 228 224 220 216 213 211 209 206 202 201 198 198 201
22 44 49 38 26 25 21 18 55 74 1 50 102 58 352 345 324 290 252 228 229 222 222 227 229 228 228 225 226 228 232 227 223 220 216 211 209 208 205 201 199 200 204
16 22 29 41 32 50 3 345 40 118 252 323 143 146 152 257 306 316 274 249 239 232 239 238 236 234 229 227 230 233 233 229 224 222 215 210 207 207 206 203 204 205 208
7 7 15 41 43 32 354 319 360 294 233 300 289 225 205 192 207 301 314 281 256 246 244 242 243 241 231 226 226 228 231 229 225 220 215 211 210 208 207 209 212 212 213
2 2 14 34 31 8 339 340 0 360 300 260 254 241 225 232 214 222 284 310 298 262 247 240 238 242 238 231 228 228 225 226 226 222 215 213 212 211 211 214 218 218 219
4 5 16 19 11 2 348 341 5 24 6 339 306 206 192 212 219 211 240 279 289 286 263 239 235 237 233 230 232 231 224 222 224 222 218 216 216 215 214 217 220 222 224
0 353 11 16 16 1 359 3 22 3 354 1 281 264 241 247 242 215 219 256 272 287 290 256 240 239 237 229 235 236 231 228 225 223 223 221 219 218 219 220 222 225 227
313 333 1 11 12 12 10 8 3 334 354 343 323 306 287 283 259 232 221 225 271 285 282 279 267 245 247 236 238 233 234 230 225 223 224 224 222 221 223 221 223 226 228
315 348 356 357 355 360 360 9 1 340 346 335 318 314 299 293 292 268 247 233 220 263 275 270 266 263 250 237 237 228 227 227 220 218 220 222 224 222 221 221 222 223 222
329 349 354 348 344 342 344 355 345 335 358 331 309 334 321 301 298 279 256 253 241 233 260 264 250 263 252 246 238 228 230 225 222 221 225 225 224 223 221 221 221 220 219
313 309 308 327 334 343 346 339 318 326 325 319 326 332 307 299 298 291 274 257 247 232 254 277 264 274 244 255 258 238 230 228 233 229 228 227 226 227 224 222 222 220 220
285 280 293 316 316 322 322 312 307 305 279 281 288 293 295 297 291 285 269 262 256 241 239 270 279 269 255 258 252 243 244 238 240 237 232 230 229 230 229 226 224 223 224
284 298 306 298 302 303 302 289 279 281 277 274 270 265 274 276 282 278 268 267 264 260 249 262 279 266 259 273 261 261 256 252 250 243 234 233 233 233 231 230 226 225 224
269 283 290 288 285 287 291 288 287 284 283 286 283 273 265 257 258 259 260 262 260 258 259 266 277 277 265 276 255 258 264 252 253 253 243 239 235 234 234 233 230 226 224
275 272 283 297 297 293 294 293 286 278 277 285 289 283 276 274 264 255 262 257 246 250 258 264 271 280 273 265 253 246 255 264 253 238 245 245 240 240 236 232 230 226 222
292 294 288 293 299 299 305 297 282 273 268 272 281 285 283 277 278 268 264 254 233 236 245 251 260 267 267 260 254 246 249 260 262 226 230 254 236 240 241 233 226 221 220
273 284 289 289 290 294 301 300 287 272 271 273 275 280 286 291 284 282 274 264 252 244 232 233 250 259 262 253 250 254 245 247 253 238 226 254 239 241 242 235 222 218 217
259 267 282 284 289 300 304 298 292 275 280 282 278 275 278 290 292 285 280 276 269 264 249 240 247 256 261 258 244 248 254 260 266 254 217 248 252 249 254 243 220 214 215
265 270 280 283 290 299 307 303 294 281 286 290 290 292 288 291 295 292 276 277 282 282 270 254 249 257 264 264 255 255 253 253 265 259 215 229 250 261 257 246 229 216 217
264 278 288 286 286 295 307 307 294 281 292 298 303 304 296 295 297 289 268 271 279 285 293 294 279 277 275 267 247 234 235 241 253 254 223 213 233 243 263 244 228 223 218
Height
1521 1521 1521 1521 1521 1521 1520 1519 1519 1518 1517 1517 1517 1517 1516 1516 1517 1517 1518 1519 1520 1521 1523 1525 1527 1528 1530 1532 1533 1534 1535 1536 1537 1538 1539 1541 1543 1546 1547 1549 1551 1553 1555
1522 1522 1521 1521 1521 1521 1520 1519 1519 1518 1517 1517 1517 1517 1517 1517 1517 1517 1518 1519 1520 1521 1523 1524 1525 1527 1528 1530 1531 1532 1533 1533 1534 1534 1535 1537 1541 1543 1545 1547 1549 1551 1553
1522 1522 1522 1521 1521 1521 1520 1519 1519 1518 1517 1517 1516 1516 1516 1517 1517 1517 1518 1518 1519 1521 1522 1523 1524 1526 1527 1528 1529 1530 1530 1531 1531 1531 1531 1534 1538 1541 1543 1545 1547 1549 1551
1523 1523 1522 1522 1521 1521 1520 1519 1519 1518 1517 1517 1516 1516 1516 1517 1517 1517 1518 1518 1519 1520 1521 1522 1523 1524 1525 1526 1527 1528 1528 1528 1529 1530 1530 1533 1536 1538 1540 1543 1545 1547 1549
1523 1523 1522 1522 1521 1521 1520 1519 1519 1518 1517 1517 1516 1516 1516 1516 1517 1517 1517 1518 1519 1520 1521 1522 1522 1523 1524 1525 1525 1526 1526 1527 1528 1529 1530 1532 1534 1536 1538 1541 1543 1545 1547
1523 1522 1522 1522 1521 1520 1520 1519 1519 1518 1517 1517 1516 1516 1516 1516 1516 1516 1517 1518 1518 1519 1520 1520 1521 1522 1522 1523 1523 1524 1524 1525 1526 1527 1528 1530 1532 1534 1536 1538 1540 1542 1544
1523 1522 1522 1521 1521 1520 1520 1519 1519 1518 1517 1517 1516 1516 1516 1516 1516 1516 1516 1517 1517 1518 1519 1519 1520 1520 1521 1521 1522 1522 1523 1523 1524 1525 1527 1528 1530 1532 1534 1536 1538 1539 1541
1523 1522 1522 1521 1520 1520 1519 1519 1518 1518 1517 1517 1517 1516 1515 1516 1515 1515 1515 1515 1516 1517 1517 1517 1518 1518 1519 1519 1520 1520 1520 1521 1522 1523 1525 1526 1527 1529 1531 1533 1535 1536 1538
1523 1522 1521 1521 1520 1519 1519 1518 1518 1517 1517 1517 1517 1517 1516 1515 1515 1515 1514 1514 1514 1515 1515 1515 1516 1516 1517 1517 1518 1518 1519 1519 1521 1522 1523 1524 1525 1527 1528 1530 1532 1533 1535
1522 1521 1521 1520 1520 1519 1518 1518 1517 1517 1516 1516 1516 1516 1516 1515 1515 1514 1514 1513 1513 1513 1513 1513 1514 1514 1515 1515 1516 1516 1517 1517 1518 1519 1521 1522 1523 1524 1526 1527 1529 1530 1532
1521 1521 1520 1519 1519 1518 1518 1517 1517 1516 1516 1515 1515 1514 1514 1514 1513 1513 1512 1511 1511 1511 1511 1511 1511 1512 1512 1513 1513 1514 1514 1515 1516 1517 1518 1519 1520 1521 1522 1524 1525 1527 1529
1521 1520 1519 1519 1518 1518 1517 1516 1516 1515 1514 1514 1514 1513 1513 1512 1512 1511 1510 1510 1509 1509 1508 1509 1509 1509 1510 1510 1510 1511 1511 1512 1512 1513 1515 1516 1517 1518 1519 1521 1522 1523 1525
1520 1519 1519 1518 1517 1517 1516 1515 1514 1514 1513 1512 1512 1512 1511 1511 1510 1510 1509 1508 1507 1507 1506 1506 1506 1507 1507 1507 1507 1508 1508 1509 1509 1510 1511 1513 1514 1515 1516 1517 1518 1520 1521
1519 1519 1518 1517 1517 1516 1515 1514 1513 1512 1512 1511 1510 1510 1510 1509 1509 1508 1507 1507 1505 1505 1504 1504 1504 1504 1504 1504 1504 1505 1505 1506 1506 1507 1508 1509 1510 1511 1512 1514 1515 1516 1517
1519 1518 1518 1516 1516 1515 1514 1513 1512 1511 1510 1509 1509 1508 1508 1507 1507 1506 1505 1505 1505 1503 1502 1501 1501 1501 1501 1501 1502 1502 1502 1503 1503 1504 1505 1506 1506 1507 1509 1510 1511 1512 1513
1518 1517 1516 1515 1514 1513 1513 1512 1511 1510 1509 1508 1507 1506 1506 1505 1505 1504 1503 1503 1502 1502 1500 1499 1499 1499 1499 1499 1499 1499 1499 1500 1500 1501 1502 1502 1503 1504 1505 1506 1507 1508 1509
1516 1516 1515 1514 1513 1512 1511 1510 1509 1508 1507 1506 1506 1505 1504 1503 1502 1502 1501 1500 1500 1499 1497 1496 1496 1496 1496 1496 1496 1496 1496 1497 1497 1498 1499 1499 1500 1500 1501 1502 1503 1504 1505
1515 1514 1514 1513 1511 1510 1509 1508 1507 1506 1505 1504 1503 1503 1502 1501 1500 1499 1498 1497 1497 1496 1495 1494 1493 1493 1493 1493 1493 1494 1494 1495 1495 1495 1496 1496 1497 1497 1498 1498 1499 1500 1501
1513 1513 1512 1511 1510 1509 1508 1506 1505 1504 1503 1502 1501 1500 1499 1499 1498 1497 1496 1495 1494 1493 1492 1491 1490 1490 1489 1490 1490 1490 1491 1491 1492 1492 1492 1493 1493 1493 1494 1494 1495 1496 1497
1511 1511 1510 1509 1508 1507 1505 1504 1503 1502 1501 1500 1499 1498 1497 1496 1495 1494 1492 1492 1491 1490 1489 1488 1487 1487 1487 1486 1486 1486 1486 1487 1487 1488 1488 1488 1489 1489 1490 1490 1491 1492 1492
1510 1509 1508 1507 1506 1504 1503 1502 1501 1499 1498 1497 1496 1495 1494 1493 1492 1491 1489 1488 1488 1487 1486 1485 1484 1484 1483 1483 1483 1482 1482 1482 1482 1483 1483 1484 1484 1484 1485 1486 1486 1487 1488
1507 1507 1505 1504 1503 1501 1500 1499 1498 1496 1495 1494 1493 1492 1491 1489 1488 1487 1486 1485 1485 1484 1483 1482 1481 1481 1480 1479 1479 1478 1478 1478 1477 1478 1478 1479 1480 1479 1480 1481 1481 1482 1483
1505 1504 1503 1501 1500 1499 1498 1496 1495 1493 1492 1491 1489 1488 1487 1486 1485 1484 1483 1482 1481 1480 1480 1479 1478 1477 1476 1476 1475 1475 1474 1473 1472 1473 1473 1473 1474 1474 1475 1476 1477 1477 1478
1503 1501 1500 1499 1497 1496 1495 1493 1492 1490 1489 1487 1486 1485 1483 1482 1481 1480 1479 1477 1477 1476 1475 1474 1474 1473 1473 1472 1472 1471 1470 1469 1469 1469 1469 1468 1468 1469 1470 1470 1471 1472 1473
1500 1499 1498 1496 1494 1493 1492 1490 1489 1487 1485 1484 1483 1481 1480 1479 1478 1476 1475 1473 1472 1472 1471 1470 1469 1469 1468 1468 1468 1467 1466 1465 1464 1464 1464 1464 1463 1464 1464 1464 1465 1466 1467
1498 1497 1495 1494 1492 1490 1489 1487 1486 1484 1482 1481 1479 1478 1477 1476 1474 1473 1471 1470 1468 1468 1467 1466 1465 1464 1464 1463 1463 1462 1461 1461 1460 1459 1459 1459 1459 1459 1459 1459 1460 1460 1461